Troy, AL

11:42 AM CDT on May 27, 2017 (GMT -0500)
Troy Municipal

Weather History for KTOI - January, 2014

Change the Weather History Date:

Thursday, January 9, 2014

  Actual Average Record
Temperature  
Mean Temperature 41 °F 46 °F  
Max Temperature 51 °F 58 °F 73 °F (2012)
Min Temperature 30 °F 35 °F 20 °F (2015)
Degree Days  
Heating Degree Days 24 19  
Month to date heating degree days 252 171  
Since 1 July heating degree days 1033 1088  
Moisture  
Dew Point 40 °F    
Average Humidity 68    
Maximum Humidity 93    
Minimum Humidity 42    
Precipitation  
Precipitation 0.09 in 0.11 in 0.20 in (2004)
Month to date precipitation 0.45 1.38  
Year to date precipitation 0.45 1.38  
Snow  
Snow 0.00 in - - ()
Month to date snowfall 0.0  
Since 1 July snowfall 0.0  
Snow Depth 0.00 in    
Sea Level Pressure  
Sea Level Pressure 30.34 in    
Wind  
Wind Speed 5 mph (NE)    
Max Wind Speed 10 mph    
Max Gust Speed 14 mph    
Visibility 4 miles    
Events Rain    
T = Trace of Precipitation, MM = Missing Value Source: NWS Daily Summary

Daily Weather History Graph

Daily Weather History Graph

Search for Another Location

Airport or City:

Trip Planner

Search our weather history database for the weather conditions in past years. The results will help you decide how hot, cold, wet, or windy it might be!

Date:

Astronomy

Jan. 09, 2014 Rise Set
Actual Time 6:45 AM CST 4:57 PM CST
Civil Twilight 6:18 AM CST 5:24 PM CST
Nautical Twilight 5:48 AM CST 5:54 PM CST
Astronomical Twilight 5:18 AM CST 6:23 PM CST
Moon 12:16 PM CST (1/9) 1:01 AM CST (1/9)
Length of Visible Light 11h 05m
Length of Day
10h 12m
Waxing Gibbous, 66% of the Moon is Illuminated
Jan 9
Waxing Gibbous
Jan 15
Full
Jan 23
Last Quarter
Jan 30
New
Feb 6
First Quarter

Hourly Weather History & Observations

Time (CST) Temp. Windchill Dew Point Humidity Pressure Visibility Wind Dir Wind Speed Gust Speed Precip Events Conditions
12:53 AM 32.0 °F - 18.0 °F 56% 30.40 in 10.0 mi Calm Calm - N/A   Scattered Clouds
1:53 AM 32.0 °F - 24.1 °F 73% 30.40 in 10.0 mi Calm Calm - N/A   Overcast
2:53 AM 30.0 °F - 23.0 °F 75% 30.39 in 10.0 mi Calm Calm - N/A   Mostly Cloudy
3:53 AM 34.0 °F 29.8 °F 21.0 °F 59% 30.39 in 10.0 mi NE 4.6 mph - N/A   Overcast
4:53 AM 35.1 °F 31.0 °F 18.0 °F 50% 30.38 in 10.0 mi ENE 4.6 mph - N/A   Clear
5:53 AM 36.0 °F 32.1 °F 19.0 °F 50% 30.40 in 10.0 mi NNE 4.6 mph - N/A   Mostly Cloudy
6:53 AM 37.9 °F 34.4 °F 19.9 °F 48% 30.41 in 10.0 mi NE 4.6 mph - N/A   Overcast
7:53 AM 39.0 °F 34.8 °F 19.9 °F 46% 30.42 in 10.0 mi NE 5.8 mph - N/A   Overcast
8:53 AM 42.1 °F 39.2 °F 23.0 °F 47% 30.44 in 10.0 mi ESE 4.6 mph - N/A   Overcast
9:53 AM 48.0 °F - 27.0 °F 44% 30.43 in 10.0 mi East 6.9 mph - N/A   Overcast
10:27 AM 48.9 °F - 28.9 °F 46% 30.41 in 10.0 mi East 5.8 mph - N/A   Overcast
10:53 AM 50.0 °F - 32.0 °F 50% 30.39 in 10.0 mi East 6.9 mph - N/A   Overcast
11:06 AM 50.0 °F - 34.0 °F 54% 30.38 in 10.0 mi East 9.2 mph - N/A   Overcast
11:13 AM 50.0 °F - 35.1 °F 57% 30.37 in 10.0 mi East 9.2 mph - N/A   Overcast
11:53 AM 48.0 °F - 41.0 °F 77% 30.36 in 4.0 mi ESE 6.9 mph - 0.00 in Rain Light Rain
12:19 PM 51.1 °F - 42.1 °F 71% 30.33 in 5.0 mi Variable 4.6 mph - 0.00 in   Haze
12:53 PM 51.1 °F - 42.1 °F 71% 30.32 in 10.0 mi ENE 6.9 mph - 0.00 in   Overcast
1:30 PM 50.0 °F - 45.0 °F 83% 30.31 in 1.8 mi NE 4.6 mph - 0.00 in Rain Light Rain
1:38 PM 48.9 °F - 45.0 °F 86% 30.31 in 1.5 mi NE 5.8 mph - 0.00 in Rain Light Rain
1:46 PM 48.9 °F - 45.0 °F 86% 30.32 in 1.5 mi North 4.6 mph - 0.00 in Rain Light Rain
1:53 PM 48.9 °F - 45.0 °F 86% 30.32 in 1.8 mi NNE 5.8 mph - 0.00 in Rain Light Rain
1:59 PM 48.9 °F - 45.0 °F 86% 30.31 in 3.0 mi North 5.8 mph - 0.01 in Rain Light Rain
2:33 PM 48.9 °F - 45.0 °F 86% 30.32 in 2.5 mi North 4.6 mph - 0.01 in Rain Light Rain
2:44 PM 48.0 °F - 45.0 °F 89% 30.32 in 1.5 mi North 5.8 mph - 0.01 in Rain Light Rain
2:53 PM 48.0 °F - 45.0 °F 89% 30.33 in 1.8 mi North 5.8 mph - 0.01 in Rain Light Rain
3:04 PM 48.0 °F - 45.0 °F 89% 30.33 in 2.5 mi NNE 8.1 mph - 0.00 in   Overcast
3:28 PM 48.0 °F - 45.0 °F 89% 30.33 in 2.0 mi NNE 5.8 mph - 0.01 in   Overcast
3:39 PM 48.0 °F - 45.0 °F 89% 30.33 in 2.0 mi NNE 5.8 mph - 0.01 in   Overcast
3:46 PM 46.9 °F - 45.0 °F 93% 30.33 in 1.8 mi NNE 5.8 mph - 0.01 in Rain Light Rain
3:49 PM 46.4 °F 44.3 °F 44.6 °F 93% 30.33 in 1.5 mi NE 4.6 mph - 0.01 in Rain Light Rain
3:53 PM 46.9 °F - 45.0 °F 93% 30.33 in 1.5 mi NE 5.8 mph - 0.01 in Rain Light Rain
3:55 PM 46.9 °F - 45.0 °F 93% 30.33 in 2.0 mi NE 6.9 mph - 0.00 in Rain Light Rain
4:11 PM 46.9 °F - 45.0 °F 93% 30.32 in 1.5 mi NNE 5.8 mph - 0.00 in   Overcast
4:20 PM 46.9 °F - 45.0 °F 93% 30.32 in 2.0 mi NNE 5.8 mph - 0.00 in   Overcast
5:53 PM 46.9 °F - 45.0 °F 93% 30.33 in 5.0 mi North 4.6 mph - 0.01 in Rain Light Rain
6:05 PM 46.9 °F - 45.0 °F 93% 30.33 in 5.0 mi NNE 4.6 mph - 0.00 in Rain Light Rain
6:53 PM 46.9 °F - 44.1 °F 90% 30.34 in 3.0 mi NNE 4.6 mph - 0.01 in Rain Light Rain
7:05 PM 46.9 °F - 45.0 °F 93% 30.34 in 4.0 mi NNE 4.6 mph - 0.00 in Rain Light Rain
7:23 PM 46.9 °F - 45.0 °F 93% 30.34 in 2.5 mi NNE 3.5 mph - 0.01 in Rain Light Rain
7:30 PM 46.9 °F - 45.0 °F 93% 30.35 in 3.0 mi NNE 3.5 mph - 0.01 in Rain Light Rain
7:37 PM 46.9 °F - 45.0 °F 93% 30.35 in 2.5 mi NNE 4.6 mph - 0.01 in Rain Light Rain
7:45 PM 46.9 °F - 45.0 °F 93% 30.35 in 2.5 mi North 3.5 mph - 0.02 in   Overcast
7:53 PM 46.9 °F - 45.0 °F 93% 30.35 in 2.0 mi North 4.6 mph - 0.02 in   Overcast
8:09 PM 46.9 °F - 45.0 °F 93% 30.35 in 2.5 mi North 4.6 mph - N/A   Overcast
8:13 PM 46.9 °F - 45.0 °F 93% 30.35 in 3.0 mi North 4.6 mph - N/A   Overcast
8:34 PM 46.9 °F - 45.0 °F 93% 30.35 in 4.0 mi NE 4.6 mph - N/A   Overcast
8:53 PM 46.9 °F - 45.0 °F 93% 30.34 in 5.0 mi NE 3.5 mph - N/A   Overcast
9:11 PM 46.9 °F - 45.0 °F 93% 30.33 in 2.5 mi NE 4.6 mph - N/A   Overcast
9:30 PM 46.9 °F - 45.0 °F 93% 30.33 in 2.5 mi ENE 3.5 mph - 0.01 in Rain Light Rain
9:53 PM 46.9 °F - 45.0 °F 93% 30.32 in 3.0 mi ENE 3.5 mph - 0.01 in   Overcast
9:59 PM 46.9 °F - 45.0 °F 93% 30.32 in 2.5 mi Calm Calm - N/A   Overcast
10:17 PM 46.9 °F - 45.0 °F 93% 30.32 in 3.0 mi Calm Calm - N/A   Overcast
10:26 PM 46.9 °F - 45.0 °F 93% 30.31 in 2.0 mi ENE 3.5 mph - 0.01 in   Overcast
10:49 PM 46.4 °F 45.2 °F 44.6 °F 93% 30.31 in 2.0 mi ENE 3.5 mph - 0.01 in   Overcast
10:53 PM 46.9 °F - 45.0 °F 93% 30.30 in 2.0 mi ENE 4.6 mph - 0.01 in   Overcast
11:07 PM 46.9 °F - 45.0 °F 93% 30.29 in 2.5 mi ENE 3.5 mph - N/A   Overcast
11:27 PM 46.9 °F - 45.0 °F 93% 30.29 in 4.0 mi NE 3.5 mph - N/A   Overcast
11:51 PM 46.4 °F 44.3 °F 44.6 °F 93% 30.27 in 1.8 mi NE 4.6 mph - 0.01 in Rain Light Rain
11:53 PM 46.9 °F - 45.0 °F 93% 30.27 in 1.8 mi NE 4.6 mph - 0.01 in Rain Light Rain